Time,TemperatureF,DewpointF,PressureIn,WindDirection,WindDirectionDegrees,WindSpeedMPH,WindSpeedGustMPH,Humidity,HourlyPrecipIn,Conditions,Clouds,dailyrainin,SoftwareType,DateUTC
2013-05-21 00:14:00,76.3,23.6,29.70,WNW,292,10.4,-999.0,14,-99.99,,,0.00,Acu-Link.com,2013-05-21 06:14:00,
2013-05-21 00:29:00,74.8,22.4,29.71,NW,315,8.9,-999.0,14,-99.99,,,0.00,Acu-Link.com,2013-05-21 06:29:00,
2013-05-21 00:44:00,73.9,21.7,29.71,WNW,292,3.7,-999.0,14,-99.99,,,0.00,Acu-Link.com,2013-05-21 06:44:00,
2013-05-21 00:59:00,72.9,20.9,29.73,WNW,292,6.3,-999.0,14,-99.99,,,0.00,Acu-Link.com,2013-05-21 06:59:00,
2013-05-21 01:14:00,72.0,20.2,29.73,NW,315,8.9,-999.0,14,-99.99,,,0.00,Acu-Link.com,2013-05-21 07:14:00,
2013-05-21 01:29:00,71.1,21.1,29.73,West,270,6.8,-999.0,15,-99.99,,,0.00,Acu-Link.com,2013-05-21 07:29:00,
2013-05-21 01:44:00,70.7,22.3,29.72,NW,315,5.8,-999.0,16,-99.99,,,0.00,Acu-Link.com,2013-05-21 07:44:00,
2013-05-21 02:00:00,70.3,22.0,29.72,NW,315,9.9,-999.0,16,-99.99,,,0.00,Acu-Link.com,2013-05-21 08:00:00,
2013-05-21 02:17:00,70.3,22.0,29.72,WNW,292,5.8,-999.0,16,-99.99,,,0.00,Acu-Link.com,2013-05-21 08:17:00,
2013-05-21 02:32:00,70.3,22.0,29.71,WSW,247,5.3,-999.0,16,-99.99,,,0.00,Acu-Link.com,2013-05-21 08:32:00,
2013-05-21 02:47:00,69.6,22.9,29.72,WNW,292,7.3,-999.0,17,-99.99,,,0.00,Acu-Link.com,2013-05-21 08:47:00,
2013-05-21 03:02:00,68.9,23.7,29.72,NNW,337,4.2,-999.0,18,-99.99,,,0.00,Acu-Link.com,2013-05-21 09:02:00,
2013-05-21 03:17:00,68.7,23.5,29.73,NNW,337,5.3,-999.0,18,-99.99,,,0.00,Acu-Link.com,2013-05-21 09:17:00,
2013-05-21 03:33:00,67.3,22.4,29.73,WNW,292,4.2,-999.0,18,-99.99,,,0.00,Acu-Link.com,2013-05-21 09:33:00,
2013-05-21 03:48:00,66.9,22.0,29.74,NNW,337,9.9,-999.0,18,-99.99,,,0.00,Acu-Link.com,2013-05-21 09:48:00,
2013-05-21 04:03:00,66.6,25.5,29.74,NW,315,11.4,-999.0,21,-99.99,,,0.00,Acu-Link.com,2013-05-21 10:03:00,
2013-05-21 04:18:00,65.8,27.0,29.76,NW,315,8.9,-999.0,23,-99.99,,,0.00,Acu-Link.com,2013-05-21 10:18:00,
2013-05-21 04:33:00,65.1,27.4,29.75,NNW,337,8.9,-999.0,24,-99.99,,,0.00,Acu-Link.com,2013-05-21 10:33:00,
2013-05-21 04:48:00,64.4,27.8,29.76,NNW,337,6.8,-999.0,25,-99.99,,,0.00,Acu-Link.com,2013-05-21 10:48:00,
2013-05-21 05:03:00,63.5,28.0,29.77,North,0,8.3,-999.0,26,-99.99,,,0.00,Acu-Link.com,2013-05-21 11:03:00,
2013-05-21 05:18:00,62.6,28.2,29.77,NNE,22,3.7,-999.0,27,-99.99,,,0.00,Acu-Link.com,2013-05-21 11:18:00,
2013-05-21 05:34:00,61.7,28.3,29.78,North,0,4.7,-999.0,28,-99.99,,,0.00,Acu-Link.com,2013-05-21 11:34:00,
2013-05-21 05:49:00,61.3,28.8,29.78,NNW,337,6.3,-999.0,29,-99.99,,,0.00,Acu-Link.com,2013-05-21 11:49:00,
2013-05-21 06:04:00,60.8,29.2,29.79,NW,315,3.7,-999.0,30,-99.99,,,0.00,Acu-Link.com,2013-05-21 12:04:00,
2013-05-21 06:19:00,60.8,30.0,29.80,WNW,292,4.2,-999.0,31,-99.99,,,0.00,Acu-Link.com,2013-05-21 12:19:00,
2013-05-21 06:34:00,61.7,30.8,29.80,WNW,292,4.2,-999.0,31,-99.99,,,0.00,Acu-Link.com,2013-05-21 12:34:00,
2013-05-21 06:50:00,63.3,31.3,29.81,West,270,3.2,-999.0,30,-99.99,,,0.00,Acu-Link.com,2013-05-21 12:50:00,
2013-05-21 07:05:00,64.4,32.3,29.82,WNW,292,2.2,-999.0,30,-99.99,,,0.00,Acu-Link.com,2013-05-21 13:05:00,
2013-05-21 07:20:00,65.5,32.4,29.82,NNW,337,5.8,-999.0,29,-99.99,,,0.00,Acu-Link.com,2013-05-21 13:20:00,
2013-05-21 07:35:00,66.4,32.3,29.83,NW,315,4.2,-999.0,28,-99.99,,,0.00,Acu-Link.com,2013-05-21 13:35:00,
2013-05-21 07:50:00,66.9,32.7,29.82,NNW,337,7.8,-999.0,28,-99.99,,,0.00,Acu-Link.com,2013-05-21 13:50:00,
2013-05-21 08:05:00,68.2,32.9,29.83,NW,315,5.8,-999.0,27,-99.99,,,0.00,Acu-Link.com,2013-05-21 14:05:00,
2013-05-21 08:20:00,69.3,32.9,29.83,NNW,337,6.8,-999.0,26,-99.99,,,0.00,Acu-Link.com,2013-05-21 14:20:00,
2013-05-21 08:35:00,69.1,32.8,29.83,NW,315,5.8,-999.0,26,-99.99,,,0.00,Acu-Link.com,2013-05-21 14:35:00,
2013-05-21 08:50:00,70.9,33.3,29.84,NW,315,5.8,-999.0,25,-99.99,,,0.00,Acu-Link.com,2013-05-21 14:50:00,
2013-05-21 09:05:00,72.5,34.7,29.83,NW,315,3.7,-999.0,25,-99.99,,,0.00,Acu-Link.com,2013-05-21 15:05:00,
2013-05-21 09:20:00,74.8,34.5,29.85,NNW,337,4.2,-999.0,23,-99.99,,,0.00,Acu-Link.com,2013-05-21 15:20:00,
2013-05-21 09:36:00,76.3,33.5,29.83,ENE,67,3.7,-999.0,21,-99.99,,,0.00,Acu-Link.com,2013-05-21 15:36:00,
2013-05-21 09:51:00,77.5,33.3,29.83,NNW,337,2.7,-999.0,20,-99.99,,,0.00,Acu-Link.com,2013-05-21 15:51:00,
2013-05-21 10:06:00,76.5,33.7,29.83,NW,315,6.3,-999.0,21,-99.99,,,0.00,Acu-Link.com,2013-05-21 16:06:00,
2013-05-21 10:21:00,77.7,34.6,29.83,West,270,5.8,-999.0,21,-99.99,,,0.00,Acu-Link.com,2013-05-21 16:21:00,
2013-05-21 10:36:00,77.7,33.4,29.83,NNE,22,7.3,-999.0,20,-99.99,,,0.00,Acu-Link.com,2013-05-21 16:36:00,
2013-05-21 10:52:00,79.3,33.5,29.82,North,0,4.2,-999.0,19,-99.99,,,0.00,Acu-Link.com,2013-05-21 16:52:00,
2013-05-21 11:07:00,80.2,32.8,29.83,West,270,2.7,-999.0,18,-99.99,,,0.00,Acu-Link.com,2013-05-21 17:07:00,
2013-05-21 11:22:00,80.4,34.4,29.82,South,180,1.7,-999.0,19,-99.99,,,0.00,Acu-Link.com,2013-05-21 17:22:00,
2013-05-21 11:37:00,82.2,33.0,29.82,SW,225,3.2,-999.0,17,-99.99,,,0.00,Acu-Link.com,2013-05-21 17:37:00,
2013-05-21 11:52:00,81.5,31.0,29.82,NE,45,4.2,-999.0,16,-99.99,,,0.00,Acu-Link.com,2013-05-21 17:52:00,
2013-05-21 12:08:00,81.5,32.5,29.81,West,270,2.2,-999.0,17,-99.99,,,0.00,Acu-Link.com,2013-05-21 18:08:00,
2013-05-21 12:23:00,81.1,30.7,29.81,ESE,112,2.7,-999.0,16,-99.99,,,0.00,Acu-Link.com,2013-05-21 18:23:00,
2013-05-21 12:38:00,81.3,30.8,29.80,NE,45,1.1,-999.0,16,-99.99,,,0.00,Acu-Link.com,2013-05-21 18:38:00,
2013-05-21 12:53:00,84.0,31.4,29.80,ENE,67,3.2,-999.0,15,-99.99,,,0.00,Acu-Link.com,2013-05-21 18:53:00,
2013-05-21 13:09:00,84.7,31.9,29.79,WSW,247,7.8,-999.0,15,-99.99,,,0.00,Acu-Link.com,2013-05-21 19:09:00,
2013-05-21 13:24:00,84.7,30.2,29.78,NW,315,7.3,-999.0,14,-99.99,,,0.00,Acu-Link.com,2013-05-21 19:24:00,
2013-05-21 13:39:00,85.3,30.7,29.77,North,0,8.3,-999.0,14,-99.99,,,0.00,Acu-Link.com,2013-05-21 19:39:00,
2013-05-21 13:54:00,85.8,29.3,29.78,WSW,247,8.3,-999.0,13,-99.99,,,0.00,Acu-Link.com,2013-05-21 19:54:00,
2013-05-21 14:09:00,85.8,29.3,29.76,SW,225,8.3,-999.0,13,-99.99,,,0.00,Acu-Link.com,2013-05-21 20:09:00,
2013-05-21 14:24:00,86.5,29.8,29.75,WSW,247,8.9,-999.0,13,-99.99,,,0.00,Acu-Link.com,2013-05-21 20:24:00,
2013-05-21 14:39:00,87.1,28.3,29.75,NNW,337,5.3,-999.0,12,-99.99,,,0.00,Acu-Link.com,2013-05-21 20:39:00,
2013-05-21 14:54:00,87.1,30.3,29.74,SW,225,6.8,-999.0,13,-99.99,,,0.00,Acu-Link.com,2013-05-21 20:54:00,
2013-05-21 15:10:00,86.0,29.4,29.73,SSE,157,3.7,-999.0,13,-99.99,,,0.00,Acu-Link.com,2013-05-21 21:10:00,
2013-05-21 15:25:00,86.9,28.2,29.72,West,270,3.2,-999.0,12,-99.99,,,0.00,Acu-Link.com,2013-05-21 21:25:00,
2013-05-21 15:40:00,85.8,29.3,29.73,WSW,247,3.2,-999.0,13,-99.99,,,0.00,Acu-Link.com,2013-05-21 21:40:00,
2013-05-21 15:55:00,89.4,25.7,29.72,NW,315,8.3,-999.0,10,-99.99,,,0.00,Acu-Link.com,2013-05-21 21:55:00,
2013-05-21 16:10:00,88.3,27.1,29.71,SW,225,4.2,-999.0,11,-99.99,,,0.00,Acu-Link.com,2013-05-21 22:10:00,
2013-05-21 16:26:00,87.3,26.4,29.69,East,90,2.2,-999.0,11,-99.99,,,0.00,Acu-Link.com,2013-05-21 22:26:00,
2013-05-21 16:41:00,89.1,25.4,29.69,NW,315,4.2,-999.0,10,-99.99,,,0.00,Acu-Link.com,2013-05-21 22:41:00,
2013-05-21 16:56:00,88.9,25.3,29.67,SW,225,4.2,-999.0,10,-99.99,,,0.00,Acu-Link.com,2013-05-21 22:56:00,
2013-05-21 17:11:00,88.9,25.3,29.68,WSW,247,8.9,-999.0,10,-99.99,,,0.00,Acu-Link.com,2013-05-21 23:11:00,
2013-05-21 17:26:00,90.7,24.1,29.67,WSW,247,4.7,-999.0,9,-99.99,,,0.00,Acu-Link.com,2013-05-21 23:26:00,
2013-05-21 17:41:00,91.9,25.0,29.67,SW,225,6.3,-999.0,9,-99.99,,,0.00,Acu-Link.com,2013-05-21 23:41:00,
2013-05-21 17:57:00,89.8,23.4,29.67,SW,225,8.9,-999.0,9,-99.99,,,0.00,Acu-Link.com,2013-05-21 23:57:00,
2013-05-21 18:12:00,90.7,24.1,29.67,SW,225,3.7,-999.0,9,-99.99,,,0.00,Acu-Link.com,2013-05-22 00:12:00,
2013-05-21 18:27:00,88.9,22.8,29.67,WSW,247,8.3,-999.0,9,-99.99,,,0.00,Acu-Link.com,2013-05-22 00:27:00,
2013-05-21 18:42:00,88.2,22.2,29.67,West,270,4.2,-999.0,9,-99.99,,,0.00,Acu-Link.com,2013-05-22 00:42:00,
2013-05-21 18:57:00,87.6,21.8,29.67,WSW,247,4.7,-999.0,9,-99.99,,,0.00,Acu-Link.com,2013-05-22 00:57:00,
2013-05-21 19:13:00,84.4,21.9,29.67,WSW,247,9.9,-999.0,10,-99.99,,,0.00,Acu-Link.com,2013-05-22 01:13:00,
2013-05-21 19:28:00,83.1,20.9,29.67,SSW,202,2.2,-999.0,10,-99.99,,,0.00,Acu-Link.com,2013-05-22 01:28:00,
2013-05-21 19:43:00,82.2,22.5,29.67,SW,225,4.7,-999.0,11,-99.99,,,0.00,Acu-Link.com,2013-05-22 01:43:00,
2013-05-21 19:59:00,81.5,21.9,29.68,West,270,2.2,-999.0,11,-99.99,,,0.00,Acu-Link.com,2013-05-22 01:59:00,
2013-05-21 20:14:00,79.5,22.4,29.68,South,180,0.0,-999.0,12,-99.99,,,0.00,Acu-Link.com,2013-05-22 02:14:00,
2013-05-21 20:29:00,77.9,21.2,29.68,SSW,202,0.0,-999.0,12,-99.99,,,0.00,Acu-Link.com,2013-05-22 02:29:00,
2013-05-21 20:45:00,76.3,21.8,29.69,South,180,0.0,-999.0,13,-99.99,,,0.00,Acu-Link.com,2013-05-22 02:45:00,
2013-05-21 21:00:00,75.9,21.5,29.68,SW,225,1.7,-999.0,13,-99.99,,,0.00,Acu-Link.com,2013-05-22 03:00:00,
2013-05-21 21:15:00,73.0,24.2,29.69,ESE,112,0.0,-999.0,16,-99.99,,,0.00,Acu-Link.com,2013-05-22 03:15:00,
2013-05-21 21:30:00,72.7,23.9,29.69,ESE,112,0.0,-999.0,16,-99.99,,,0.00,Acu-Link.com,2013-05-22 03:30:00,
2013-05-21 21:46:00,72.9,24.1,29.69,East,90,0.0,-999.0,16,-99.99,,,0.00,Acu-Link.com,2013-05-22 03:46:00,
2013-05-21 22:01:00,72.5,23.8,29.70,ESE,112,0.0,-999.0,16,-99.99,,,0.00,Acu-Link.com,2013-05-22 04:01:00,
2013-05-21 22:16:00,72.1,24.9,29.70,SE,135,1.7,-999.0,17,-99.99,,,0.00,Acu-Link.com,2013-05-22 04:16:00,
2013-05-21 22:31:00,71.6,24.5,29.70,East,90,2.2,-999.0,17,-99.99,,,0.00,Acu-Link.com,2013-05-22 04:31:00,
2013-05-21 22:46:00,72.3,23.6,29.70,East,90,2.2,-999.0,16,-99.99,,,0.00,Acu-Link.com,2013-05-22 04:46:00,
2013-05-21 23:02:00,71.2,24.2,29.71,SSW,202,1.7,-999.0,17,-99.99,,,0.00,Acu-Link.com,2013-05-22 05:02:00,
2013-05-21 23:17:00,71.8,21.7,29.70,SSE,157,1.7,-999.0,15,-99.99,,,0.00,Acu-Link.com,2013-05-22 05:17:00,
2013-05-21 23:32:00,71.4,22.9,29.70,South,180,1.7,-999.0,16,-99.99,,,0.00,Acu-Link.com,2013-05-22 05:32:00,
2013-05-21 23:48:00,72.9,20.9,29.70,SSE,157,4.2,-999.0,14,-99.99,,,0.00,Acu-Link.com,2013-05-22 05:48:00,